Location: Arrodets-la-Barthe
(43.0306°N, 0.2829°E)
Time: 00:10:53
(UTC+00:00)

BUGSAT 1 - Visible Passes

Search period start: 25 June 2024 00:00
Search period end: 05 July 2024 00:00
Orbit: 529 x 580 km, 98.1° (Epoch: 24 June)

Date Brightness Start Highest point End Pass type
(mag) Time Alt. Az. Time Alt. Az. Time Alt. Az.
25 Jun ? 20:37:51 10° SSW 20:40:58 22° W 20:44:05 10° NW visible
26 Jun ? 20:34:42 10° SSW 20:37:56 24° W 20:41:08 10° NW visible
27 Jun ? 20:31:33 10° SSW 20:34:52 26° W 20:38:11 10° NW visible
28 Jun ? 20:28:24 10° SSW 20:31:48 29° W 20:35:12 10° NW visible
29 Jun ? 20:25:15 10° SSW 20:28:44 31° W 20:32:13 10° NNW visible
30 Jun ? 20:22:06 10° SSW 20:25:39 34° W 20:29:12 10° NNW visible
01 Jul ? 20:18:56 10° SSW 20:22:33 37° W 20:26:10 10° NNW visible
02 Jul ? 20:15:47 10° S 20:19:27 41° W 20:23:07 10° NNW visible
03 Jul ? 20:12:38 10° S 20:16:20 45° W 20:20:03 10° NNW visible
